This is the latest recevied weather packets stored in our database for station/object KC2TER. If no packets are shown the sender has not sent any weather packets the latest 10 day(s).
| Time | Temp. | Humidity | Pressure | Rain* | Wind** | Luminosity | Snow |
|---|---|---|---|---|---|---|---|
| 1778105126 | 20° C | 78% | 1007.4 hPa | 0 mm | - | 27 W/m² | - |
| 1778104822 | 20.56° C | 78% | 1007.4 hPa | 0 mm | - | 28 W/m² | - |
| 1778104519 | 20.56° C | 78% | 1007.4 hPa | 0 mm | - | 46 W/m² | - |
| 1778104214 | 20.56° C | 78% | 1007.3 hPa | 0 mm | - | 61 W/m² | - |
| 1778103912 | 20.56° C | 78% | 1007.2 hPa | 0 mm | - | 94 W/m² | - |
| 1778103609 | 20° C | 79% | 1007.2 hPa | 0 mm | - | 114 W/m² | - |
| 1778103307 | 20° C | 79% | 1006.9 hPa | 0 mm | - | 100 W/m² | - |
| 1778103004 | 20° C | 80% | 1007.4 hPa | 0 mm | - | 48 W/m² | - |
| 1778102700 | 20° C | 80% | 1007.2 hPa | 0 mm | - | 41 W/m² | - |
| 1778102394 | 20° C | 79% | 1006.9 hPa | 0 mm | - | 53 W/m² | - |
| 1778102091 | 20° C | 80% | 1006.9 hPa | 0 mm | - | 110 W/m² | - |
| 1778101788 | 20° C | 80% | 1006.7 hPa | 0 mm | - | 121 W/m² | - |
| 1778101484 | 20° C | 80% | 1006.8 hPa | 0 mm | - | 124 W/m² | - |
| 1778101182 | 20° C | 80% | 1006.8 hPa | 0 mm | - | 145 W/m² | - |
| 1778100878 | 20° C | 81% | 1007 hPa | 0 mm | - | 158 W/m² | - |
| 1778100574 | 19.44° C | 81% | 1007.1 hPa | 0 mm | - | 66 W/m² | - |
| 1778100272 | 19.44° C | 81% | 1006.9 hPa | 0 mm | - | 91 W/m² | - |
| 1778099969 | 19.44° C | 81% | 1007 hPa | 0 mm | - | 75 W/m² | - |
| 1778099666 | 19.44° C | 81% | 1007.1 hPa | 0 mm | - | 70 W/m² | - |
| 1778099363 | 19.44° C | 81% | 1007 hPa | 0 mm | - | 78 W/m² | - |
| 1778099061 | 19.44° C | 81% | 1007 hPa | 0 mm | - | 78 W/m² | - |
| 1778098757 | 19.44° C | 81% | 1007 hPa | 0 mm | - | 94 W/m² | - |
| 1778098454 | 19.44° C | 81% | 1007.2 hPa | 0 mm | - | 60 W/m² | - |
| 1778098151 | 19.44° C | 81% | 1007.1 hPa | 0 mm | - | 90 W/m² | - |
| 1778097847 | 19.44° C | 81% | 1007.3 hPa | 0 mm | - | 103 W/m² | - |
* Rain latest hour (hover to see other rain measurements)
** Current wind speed in m/s (hover to see current wind gust speed)